Location: Chery
(49.7195°N, 4.0941°E)
Time: 13:16:10
(UTC+00:00)

Daily predictions for brighter satellites

Satellite Brightness Start Highest point End
(mag) Time Altitude Azimuth Time Altitude Azimuth Time Altitude Azimuth
CZ-4C R/B 4.0 17:49:40 10° WNW 17:54:14 25° N 17:59:42 10° NE
Cosmos 1933 Rocket 4.1 17:53:39 10° SSE 17:57:38 35° E 18:01:36 10° NNE
GEOS 3 Rocket 3.8 17:53:37 10° NE 17:59:03 85° NW 18:04:21 10° SW
USA 308 4.1 17:56:51 10° W 17:59:50 30° SW 18:03:02 10° SSE
Meteor PRIRODA 3.7 17:57:47 10° S 18:01:18 77° WSW 18:04:53 10° NNW
Cosmos 1821 Rocket 4.3 18:00:43 10° N 18:06:47 49° ENE 18:12:54 10° SSE
ISS -3.5 18:03:51 10° WNW 18:07:11 64° SSW 18:10:30 10° ESE
USA 305 1.4 18:07:26 10° WNW 18:09:43 72° SSW 18:11:53 11° SE
Cosmos 2360 Rocket 2.9 18:04:35 10° SW 18:10:10 59° WNW 18:15:48 10° NNE
BREEZE-M R/B 4.0 18:07:58 10° W 18:12:24 83° SSW 18:21:33 11° ESE
Landsat 4 4.5 18:12:45 10° SE 18:15:57 30° ENE 18:19:10 10° N
SL-8 Rocket 4.3 18:10:11 10° NNW 18:16:27 76° W 18:22:43 10° S
SL-08 R/B 3.6 18:14:08 10° NNE 18:19:06 82° WNW 18:24:01 10° SSW
Cosmos 2366 rocket 4.1 18:12:55 10° N 18:19:07 82° W 18:25:15 10° S
ATLAS 3B R/B 3.0 18:13:49 10° SSW 18:20:24 49° ESE 18:27:29 10° NE
Cosmos 2292 4.1 18:17:42 10° S 18:20:39 63° E 18:23:54 10° NNE
Cosmos 2369 Rocket 4.1 18:18:12 10° N 18:21:02 14° NNE 18:23:50 10° ENE
Cosmos 2237 Rocket 3.2 18:16:45 10° SSE 18:21:06 23° ESE 18:25:28 10° NE
IGS 5A 3.4 18:17:03 10° SSE 18:21:07 70° ENE 18:25:13 10° N
CENTAUR R/B 4.2 18:16:10 10° NW 18:22:24 30° N 18:29:37 10° ENE
ADEOS 4.3 18:18:07 10° S 18:23:15 58° WSW 18:28:25 10° NNW
Cosmos 1633 Rocket 4.3 18:19:24 10° SSW 18:23:33 46° WNW 18:27:46 10° N
YAOGAN 1 2.5 18:19:27 10° SSE 18:23:45 86° ENE 18:28:06 10° NNW
Cosmos 1340 Rocket 3.5 18:22:35 10° NNW 18:26:35 60° W 18:30:32 10° S
SPOT 1/Viking Rocket 4.5 18:24:05 12° ESE 18:28:05 28° ENE 18:32:26 10° N
Cosmos 2322 3.7 18:23:47 10° SSW 18:29:30 76° ESE 18:35:14 10° NNE
Cosmos 2333 Rocket 3.0 18:24:33 10° SW 18:30:07 56° NW 18:35:44 10° NNE
Nadezhda 3 Rocket 4.3 18:24:23 10° SSE 18:30:22 45° E 18:36:22 10° NNE
CZ-4B R/B 3.3 18:27:19 10° S 18:30:44 53° WSW 18:34:12 10° NNW
SJ-6B 3.3 18:27:07 10° SE 18:30:53 40° ENE 18:34:38 10° N
DELTA 2 DEB (DPAF) 4.0 18:27:07 10° NNE 18:31:25 65° ESE 18:35:42 10° S
COSMO-SKYMED 1 3.5 18:27:23 10° N 18:31:37 52° WNW 18:35:51 10° SSW
Cosmos 1733 3.9 18:29:16 10° SSW 18:32:54 54° WNW 18:36:33 10° N
Lacrosse 5 2.9 18:29:10 10° WNW 18:33:54 37° N 18:38:02 13° ENE
COSMOS 2428 2.7 18:29:11 10° SSW 18:34:48 67° ESE 18:40:26 10° NNE
Cosmos 1805 3.4 18:33:23 10° SSW 18:37:09 73° WNW 18:40:56 10° N
Cosmos 1869 Rocket 3.7 18:33:57 10° SSE 18:38:10 49° E 18:42:23 10° NNE
MOS 1-B 4.4 18:34:05 10° SSE 18:39:46 62° ENE 18:45:28 10° N
ADEOS Rocket 4.0 18:33:36 11° ESE 18:40:08 38° ENE 18:46:37 10° N
Okean O Rocket 2.1 18:36:30 12° SE 18:40:15 41° ENE 18:44:26 10° N
IKONOS-2 4.5 18:36:48 10° NNE 18:41:04 89° W 18:45:15 10° SSW
Cosmos 1470 3.8 18:41:39 22° ESE 18:42:17 23° E 18:45:22 10° NE
Cosmos 1269 Rocket 4.2 18:38:01 10° S 18:43:03 46° ESE 18:48:06 10° NNE
NOSS 0 Rocket 4.1 18:37:48 10° S 18:43:40 47° ESE 18:49:37 10° NE
NOSS 2-3 (C) 4.0 18:40:54 10° WSW 18:44:40 58° NW 18:49:06 10° NE
Cosmos 389 Rocket 4.4 18:43:38 10° NNE 18:44:14 12° NE 18:44:14 12° NE
Cosmos 1900 4.5 18:41:03 10° SSW 18:45:47 49° ESE 18:50:37 10° NE
Cosmos 1943 Rocket 2.7 18:40:36 10° NNW 18:46:00 42° NE 18:49:24 21° ESE
NOSS 2-3 (D) 4.0 18:46:07 10° WSW 18:49:51 56° NW 18:54:14 10° NE
USA 215 4.3 18:49:42 19° ESE 18:50:45 20° SE 18:55:21 10° S
NOSS 3-1 (A) 3.6 18:47:48 10° S 18:52:23 36° ESE 18:57:44 10° NE
Cosmos 2219 Rocket 3.0 18:51:47 10° SW 18:57:14 53° NW 19:02:45 10° NNE
Okean 2 3.9 18:54:07 10° NNW 18:58:06 60° W 19:02:02 10° S
Resurs 1-3 3.5 18:55:57 13° SSE 18:59:45 68° ENE 19:04:06 10° N
NOSS 2-2 (E) 3.6 18:57:18 10° WSW 19:00:27 51° NW 19:03:43 10° NE
CSL-04 Debris 4.2 18:56:08 15° SE 19:00:32 57° ENE 19:05:51 10° N
Resurs 01 Rocket 2.3 19:01:21 29° E 19:02:29 34° ENE 19:06:31 10° N
Feng Yun 1-1 Rocket 4.2 19:00:22 10° SSE 19:06:11 79° ENE 19:11:53 10° NNW
Cosmos 1992 Rocket 4.3 19:04:13 10° NNW 19:09:25 66° WSW 19:14:35 10° S
COSMOS 2455 3.6 19:06:16 10° NW 19:12:06 52° WSW 19:17:54 10° SSE
Cosmos 405 4.1 19:09:51 10° N 19:10:56 21° NNE 19:10:56 21° NNE
PSLV R/B 4.1 19:08:58 10° S 19:12:48 66° WSW 19:16:44 10° NNW
Landsat 7 4.2 19:10:56 10° S 19:15:36 65° WSW 19:20:19 10° NNW
Okean-O 3.0 19:16:03 39° E 19:16:43 42° ENE 19:20:54 10° N
Cosmos 614 Rocket 3.9 19:12:42 10° SSW 19:17:46 82° WNW 19:22:52 10° NNE
Cosmos 2242 Rocket 4.2 19:14:15 10° NNW 19:18:41 59° W 19:23:08 10° S
CSL-04 Rocket 3.5 19:15:47 23° SSE 19:19:07 71° ENE 19:24:26 10° NNW
NOSS 2-2 (D) 3.8 19:17:55 10° WSW 19:21:01 45° NW 19:23:04 19° NNE
Cosmos 1733 Rocket 3.1 19:20:44 42° SE 19:21:45 51° E 19:25:59 10° NNE
Cosmos 1932 4.5 19:18:11 10° NW 19:24:39 84° SW 19:28:08 29° SSE
NOSS 2-2 (C) 3.9 19:21:39 10° WSW 19:24:43 43° NW 19:26:37 21° NNE
Ariane Rocket 4.5 19:25:16 20° NE 19:25:16 20° NE 19:28:42 10° N
Cosmos 1980 3.6 19:20:15 10° SSW 19:25:51 71° ESE 19:31:30 10° NNE
CZ-4 R/B 2.5 19:23:43 10° S 19:27:21 40° W 19:30:58 10° NNW
USA 267 3.5 19:24:18 29° E 19:27:42 59° NNE 19:34:06 10° WNW
Cosmos 1605 Rocket 4.0 19:22:25 10° N 19:28:24 55° ENE 19:30:40 36° SE
CZ-4B R/B 3.7 19:23:31 10° S 19:28:42 55° W 19:33:57 10° NNW
NOSS 3-1 (C) 3.4 19:25:37 10° SW 19:30:44 73° NW 19:37:00 10° NE
CZ-4C R/B 3.2 19:27:58 10° N 19:31:21 66° WNW 19:34:47 10° SSW
Gbstr 26 Del rocket 4.4 19:23:59 10° WSW 19:31:56 79° SSE 19:36:50 26° ENE
SME Rocket 4.2 19:25:32 10° S 19:32:59 70° WSW 19:37:56 10° NNW
Cosmos 1339 Rocket 4.4 19:26:53 10° S 19:33:06 74° E 19:39:29 10° NNE
Cosmos 1535 Rocket 4.3 19:27:15 10° N 19:33:22 72° E 19:36:35 30° SSE
USA 186 2.2 19:34:38 56° WNW 19:34:38 56° WNW 19:37:24 10° NNW
Cosmos 2278 Rocket 3.0 19:30:01 10° NW 19:35:30 49° WSW 19:39:58 15° S
Cosmos 1934 Rocket 4.0 19:29:20 10° N 19:35:44 86° W 19:40:57 16° S
CARTOSAT-1 3.7 19:40:41 56° NE 19:40:41 56° NE 19:44:39 10° N
Cosmos 1378 Rocket 3.4 19:38:45 10° N 19:43:01 72° ENE 19:43:01 72° ENE
ISS -1.3 19:41:26 10° W 19:43:27 15° SW 19:43:38 15° SW
CZ-4C R/B 4.1 19:39:31 10° NW 19:44:46 27° NNE 19:48:31 18° ENE
Meteor 1-12 Rocket 4.2 19:44:57 13° S 19:50:08 76° E 19:56:05 10° NNE
IRS-1C Rocket 4.0 19:53:30 65° ESE 19:54:00 69° ENE 19:59:15 10° N
ERS-1 Rocket 4.3 19:57:59 27° NE 19:57:59 27° NE 20:01:11 10° N
Meteor 1-22 Rocket 3.9 19:56:44 47° S 19:58:17 82° E 20:03:39 10° NNE
MOS 1 4.1 19:59:27 64° ESE 20:00:09 72° ENE 20:05:47 10° NNW
Cosmos 972 Rocket 4.1 19:55:34 10° NNW 20:00:51 60° NE 20:00:51 60° NE
Cosmos 1674 Rocket 3.6 19:57:34 10° NNW 20:01:47 77° NW 20:01:47 77° NW
Cosmos 2237 Rocket 2.5 19:58:58 10° SW 20:04:38 68° WNW 20:10:22 10° NNE
Cosmos 2369 Rocket 2.6 20:01:11 10° NNW 20:06:20 45° NE 20:06:20 45° NE
SPOT 5 4.0 20:08:27 30° NNE 20:08:27 30° NNE 20:11:01 10° N
SPOT 1/Viking Rocket 4.3 20:04:42 27° SSW 20:07:15 48° W 20:12:15 10° NNW
Cosmos 2221 Rocket 3.9 20:06:33 10° NNW 20:11:03 63° W 20:11:03 63° W
ATLAS 3B R/B 3.5 20:04:15 10° WSW 20:11:11 54° NW 20:18:35 10° NE
SL-16 R/B 4.5 20:17:06 11° NE 20:17:06 11° NE 20:17:25 10° NE
Cosmos 1153 Rocket 4.3 20:08:23 10° N 20:14:36 73° E 20:14:55 71° ESE
CENTAUR R/B 3.6 20:07:26 10° NW 20:15:00 49° NNE 20:17:24 40° ENE
Okean O Rocket 3.6 20:13:54 14° SW 20:16:41 25° W 20:20:24 10° NW
Lacrosse 5 2.2 20:12:30 10° NW 20:17:14 61° N 20:17:14 61° N
Cosmos 1470 4.4 20:16:30 25° WSW 20:17:47 32° WNW 20:21:19 10° N
Cosmos 1656 Rocket 3.9 20:16:55 10° NNW 20:21:37 56° NNE 20:21:37 56° NNE
Meteor 2-5 Rocket 4.3 20:18:40 10° NNW 20:24:12 53° W 20:25:45 41° SW
Cosmos 1867 3.8 20:18:48 10° SW 20:24:13 68° NW 20:26:04 41° NNE
Cosmos 2297 3.7 20:19:01 10° NNW 20:24:30 79° N 20:24:30 79° N
ADEOS Rocket 3.9 20:20:33 25° S 20:25:19 60° W 20:32:31 10° NNW
Cosmos 2173 Rocket 4.3 20:20:01 10° N 20:25:02 50° NE 20:25:02 50° NE
USA 229 DEB 3.9 20:19:57 10° SSW 20:32:18 13° NE 20:32:57 10° NE
USA 229 3.9 20:20:02 10° SSW 20:32:27 13° NE 20:33:03 10° NE
Cosmos 1943 Rocket 3.2 20:24:29 10° NW 20:29:44 40° WSW 20:30:56 35° SW
Terra 3.4 20:33:13 26° NNE 20:33:13 26° NNE 20:35:30 10° N
Meteor 1-24 Rocket 4.4 20:26:42 10° NNW 20:31:52 47° W 20:32:50 42° SW
NOSS 3-2 (A) 4.4 20:25:16 10° NW 20:32:02 48° NE 20:33:14 45° ENE
USA 215 3.9 20:37:08 39° SSW 20:37:08 39° SSW 20:41:08 10° SW
Resurs 01 Rocket 3.2 20:38:52 30° W 20:38:57 30° W 20:42:55 10° NNW
Cosmos 2100 Rocket 4.2 20:35:41 10° N 20:40:51 61° NNE 20:40:51 61° NNE
NOSS 3-1 (A) 3.9 20:37:50 10° WSW 20:42:58 51° NW 20:49:14 10° NE
Cosmos 1763 Rocket 4.3 20:41:49 10° NNW 20:45:26 47° NNW 20:45:26 47° NNW
Cosmos 1459 Rocket 4.2 20:46:02 10° N 20:51:23 63° N 20:51:23 63° N
Ariane Rocket 4.3 21:05:27 38° NNW 21:05:27 38° NNW 21:08:34 10° NNW
NOSS 3-2 (C) 4.5 21:03:28 10° NW 21:10:12 46° NNE 21:10:22 46° NE
USA 267 3.5 21:11:39 61° W 21:11:39 61° W 21:17:13 10° WNW
Gbstr 26 Del rocket 4.5 21:11:28 10° W 21:19:11 75° NNW 21:19:11 75° NNW
CZ-4C R/B 3.4 21:28:03 10° NW 21:33:38 50° N 21:33:38 50° N
Cosmos 2369 Rocket 4.1 21:45:26 10° NW 21:48:07 25° WNW 21:48:07 25° WNW
SL-16 R/B 4.2 21:58:56 23° N 21:58:56 23° N 22:01:26 10° NNE
ATLAS 3B R/B 4.5 21:57:20 10° WNW 22:03:36 29° N 22:10:11 10° NE
CENTAUR R/B 3.6 21:58:09 10° NW 22:04:33 57° WNW 22:04:33 57° WNW
